This is the latest recevied weather packets stored in our database for station/object XE2OR-10. If no packets are shown the sender has not sent any weather packets the latest 10 day(s).
| Time | Temp. | Humidity | Pressure | Rain* | Wind** | Luminosity | Snow |
|---|---|---|---|---|---|---|---|
| 1777931929 | 31.11° C | 61% | 1013.7 hPa | 0 mm | - | 546 W/m² | - |
| 1777931632 | 31.11° C | 62% | 1013.5 hPa | 0 mm | - | 511 W/m² | - |
| 1777931329 | 31.11° C | 61% | 1013.7 hPa | 0 mm | - | 615 W/m² | - |
| 1777931032 | 30.56° C | 62% | 1013.8 hPa | 0 mm | - | 630 W/m² | - |
| 1777930729 | 30° C | 62% | 1013.9 hPa | 0 mm | - | 550 W/m² | - |
| 1777930429 | 30.56° C | 61% | 1014.1 hPa | 0 mm | - | 302 W/m² | - |
| 1777930128 | 31.11° C | 61% | 1014.2 hPa | 0 mm | - | 522 W/m² | - |
| 1777929832 | 30.56° C | 62% | 1014 hPa | 0 mm | - | 567 W/m² | - |
| 1777929529 | 30.56° C | 60% | 1014.3 hPa | 0 mm | - | 592 W/m² | - |
| 1777929232 | 30° C | 62% | 1014.5 hPa | 0 mm | - | 602 W/m² | - |
| 1777928928 | 30.56° C | 60% | 1014.5 hPa | 0 mm | - | 553 W/m² | - |
| 1777928629 | 30.56° C | 61% | 1014.5 hPa | 0 mm | - | 622 W/m² | - |
| 1777928328 | 30° C | 62% | 1014.7 hPa | 0 mm | - | 481 W/m² | - |
| 1777928032 | 30.56° C | 62% | 1014.7 hPa | 0 mm | - | 634 W/m² | - |
| 1777927729 | 30° C | 61% | 1014.8 hPa | 0 mm | - | 650 W/m² | - |
| 1777927432 | 31.11° C | 62% | 1015 hPa | 0 mm | - | 640 W/m² | - |
| 1777927129 | 30° C | 62% | 1015 hPa | 0 mm | - | 687 W/m² | - |
| 1777926829 | 31.11° C | 62% | 1015 hPa | 0 mm | - | 694 W/m² | - |
| 1777926528 | 30° C | 63% | 1015.1 hPa | 0 mm | - | 707 W/m² | - |
| 1777926232 | 30.56° C | 62% | 1015.1 hPa | 0 mm | - | 721 W/m² | - |
| 1777925929 | 30° C | 62% | 1015.5 hPa | 0 mm | - | 746 W/m² | - |
| 1777925632 | 30° C | 63% | 1015.4 hPa | 0 mm | - | 705 W/m² | - |
| 1777925329 | 29.44° C | 62% | 1015.4 hPa | 0 mm | - | 750 W/m² | - |
| 1777925029 | 28.89° C | 64% | 1015.3 hPa | 0 mm | - | 599 W/m² | - |
| 1777924728 | 29.44° C | 64% | 1015.5 hPa | 0 mm | - | 478 W/m² | - |
* Rain latest hour (hover to see other rain measurements)
** Current wind speed in m/s (hover to see current wind gust speed)